User: anonymous   Login
Location: Bangkok
(13.7500°N, 100.5170°E)
Time: 20:13:58
(UTC+07:00)
Language:

Cosmos 1802 Rocket - Orbit

View from above orbital plane
View from above orbital plane
View from above satellite
View from above satellite

Ground track
Ground track

The orbit data is extracted from the following two-line orbital elements,

1 17160U 86093B   15084.76075017  .00000130  00000-0  12067-3 0  9995
2 17160 082.9267 308.4711 0037652 258.0092 172.7390 13.74545577420984
Epoch (UTC): 25 March 2015 18:15:28
Eccentricity: 0.0037652
inclination: 82.9267°
perigee height: 955 km
apogee height: 1011 km
right ascension of ascending node: 308.4711°
argument of perigee: 258.0092°
revolutions per day: 13.74545577
mean anomaly at epoch: 172.7390°
orbit number at epoch: 42098

The dashed part of the orbit path shows where the satellite is in the earth's shadow,  

DLR